Vorticity
7 7 8 8 8 7 6 6 7 8 7 7 10 12 10 7 6 4 4 5 5 5 6 5 5 5 6 7 6 6 5 4 5 5 4 4 5 5 7 8 8 7 6 6 6 7 9 9 10 10 12 12 12 11 10 11 12 10 10 9 9 9 8 9 8 9 14 10 7 10 13 11 9 11 13 15 16 17 19 19 13 8 13 15 12 8 7 11
6 7 7 8 8 8 7 7 6 8 9 9 8 10 11 10 8 6 4 4 5 5 6 5 5 4 4 6 6 7 7 5 5 5 5 5 5 4 5 6 7 9 8 7 6 6 7 7 8 8 9 12 12 12 11 11 12 12 11 10 11 10 6 6 7 9 15 14 5 5 10 11 11 10 10 11 12 13 14 17 16 11 7 4 9 15 10 7
5 5 6 6 7 7 7 7 7 7 9 10 10 10 11 10 8 7 6 4 4 5 6 6 5 5 4 4 5 6 7 7 7 5 5 5 5 5 4 4 4 5 6 6 8 8 7 7 6 6 5 8 11 11 12 11 10 11 11 11 12 10 7 6 7 8 12 15 9 4 7 11 12 11 10 9 9 11 13 15 13 15 16 6 1 9 14 11
4 5 5 6 7 7 7 7 7 8 9 10 11 11 11 11 9 7 6 5 4 4 6 7 6 6 5 5 5 5 5 6 8 7 6 6 5 6 5 6 5 4 4 4 6 6 7 8 7 7 6 5 7 8 10 12 10 10 10 10 10 10 12 12 8 6 6 11 13 7 4 6 9 10 10 9 10 11 11 12 11 10 14 14 7 2 4 8
6 6 6 6 7 7 8 7 8 8 8 9 9 11 11 12 12 8 6 5 4 3 4 8 8 7 6 6 6 5 6 5 6 7 8 7 6 6 6 6 6 5 5 4 3 4 5 6 7 7 7 6 6 7 7 9 10 10 10 9 9 11 15 16 13 10 5 5 9 10 5 2 4 6 10 10 9 11 10 9 11 10 8 10 12 10 6 1
8 8 7 7 7 6 7 7 8 8 7 8 8 9 10 11 13 12 8 4 3 4 3 5 7 8 7 7 7 6 7 6 5 6 7 8 8 7 7 6 6 6 6 6 4 4 4 3 5 5 7 7 6 6 6 6 9 10 10 9 10 10 12 15 16 14 10 6 6 8 5 3 3 3 5 7 6 9 12 10 10 10 10 10 10 11 14 12
11 11 10 10 9 8 8 7 7 8 7 7 7 8 9 10 11 13 13 9 4 3 3 4 6 7 6 6 6 6 7 6 6 6 5 6 7 7 8 7 7 6 6 7 6 5 5 4 3 4 5 5 6 7 6 6 8 8 9 9 8 9 11 12 13 14 14 12 9 8 6 4 6 6 4 3 2 5 9 10 11 10 10 10 10 9 9 13
12 12 12 12 12 11 10 9 8 8 8 8 7 7 7 9 10 10 12 13 10 5 3 3 4 6 5 3 4 6 6 6 7 7 6 5 6 6 7 7 7 8 7 6 7 6 6 5 4 3 3 4 5 6 6 6 6 6 7 8 7 6 8 10 10 13 14 14 13 12 11 8 6 7 9 10 5 3 5 6 9 11 10 9 8 10 9 7
12 12 13 13 13 13 12 12 11 9 8 8 8 7 6 7 8 10 10 12 13 11 7 3 3 5 6 4 3 4 5 5 6 7 7 7 6 6 6 6 6 7 7 7 7 6 6 6 5 4 4 5 5 4 4 4 4 5 5 7 8 5 4 6 7 10 11 12 13 13 14 14 10 7 12 18 13 6 5 4 4 6 9 10 10 8 9 9
11 10 11 11 11 11 11 12 13 13 12 10 9 8 7 6 6 8 10 11 13 13 13 9 4 3 4 6 4 3 4 4 5 6 6 7 6 6 6 6 6 6 6 6 6 7 6 6 6 6 6 6 4 3 3 2 1 4 4 4 7 6 4 5 6 7 9 9 9 10 12 14 14 11 12 17 18 11 7 9 7 5 4 6 10 10 8 8
8 7 7 7 7 8 8 8 9 11 13 14 14 10 7 6 5 6 7 9 11 13 15 14 11 6 3 4 4 4 5 4 4 4 4 5 5 5 6 5 6 6 6 6 5 5 6 6 6 6 6 6 6 5 3 2 1 1 2 3 4 5 5 5 6 6 6 7 7 7 8 10 12 11 8 9 17 16 11 15 14 11 10 4 4 8 9 8
6 6 6 6 6 7 7 8 8 7 8 11 16 16 10 7 5 5 5 5 7 10 12 15 16 13 8 4 3 2 4 4 4 4 3 4 5 5 6 6 6 6 6 6 6 6 5 5 6 6 6 6 7 7 6 5 3 3 2 2 2 4 4 4 5 5 5 6 7 8 7 6 7 8 9 7 11 13 10 14 15 17 17 11 7 7 8 10
8 8 8 8 7 8 8 8 8 8 8 8 11 15 15 14 9 5 6 5 5 5 5 8 12 16 15 11 6 3 2 2 2 3 3 3 5 6 6 7 7 6 6 5 5 6 6 6 5 5 6 6 6 6 6 7 6 6 5 4 3 3 2 2 4 4 5 5 4 7 7 5 3 4 10 8 6 8 8 9 11 15 19 16 14 11 9 11
9 8 9 10 10 10 10 10 9 9 9 9 9 10 13 17 15 10 8 7 6 5 3 4 6 10 14 15 12 9 6 3 2 2 3 3 3 4 4 5 6 7 8 7 6 5 6 6 6 6 5 5 6 6 6 6 6 6 6 6 6 4 1 1 3 3 4 5 4 6 6 5 3 3 7 7 5 7 7 8 7 8 14 18 17 15 15 14
10 9 9 10 11 10 10 10 10 10 9 9 9 10 11 13 15 14 11 9 7 5 4 4 5 7 10 13 13 12 10 8 6 4 3 3 3 2 3 3 4 6 7 8 8 7 5 5 6 6 6 5 5 5 6 6 5 5 5 5 7 7 3 1 4 3 2 3 3 5 6 6 4 3 5 5 5 6 6 7 8 6 7 11 15 16 17 17
10 9 8 9 10 10 11 11 11 11 11 10 10 10 11 12 13 14 14 13 11 9 7 7 8 9 9 10 11 12 12 11 10 8 5 4 3 3 3 3 3 3 5 7 9 9 8 6 5 5 6 7 6 5 5 5 5 5 5 5 6 6 6 5 6 4 3 3 2 2 3 3 4 4 4 5 5 5 6 6 7 8 7 6 9 11 13 15
9 8 9 9 10 11 12 13 12 11 11 11 11 11 12 13 13 14 15 15 16 14 12 11 11 11 10 9 10 11 11 11 10 9 8 7 5 4 4 4 4 4 5 6 7 9 9 9 7 5 5 6 6 6 5 4 6 8 8 8 7 6 6 7 7 6 5 4 3 3 2 1 2 2 2 3 4 4 5 5 6 7 8 7 6 6 7 9
8 9 9 9 9 10 11 13 13 12 12 11 12 13 12 13 14 14 15 16 17 16 15 15 14 13 12 11 11 12 12 12 10 9 8 8 7 6 5 5 5 5 5 5 6 6 8 9 9 7 6 5 6 7 7 7 7 8 8 7 7 6 6 5 5 6 6 6 5 5 4 3 2 1 1 1 2 3 3 3 4 4 5 6 6 5 6 7
8 8 8 8 8 8 9 11 12 12 12 12 12 13 13 14 14 14 15 15 15 16 16 16 16 15 14 13 12 13 13 14 14 12 10 8 7 6 6 6 5 5 5 6 6 6 7 9 9 9 8 7 6 7 7 6 5 4 4 5 6 6 6 6 6 5 5 6 6 6 4 4 5 4 3 2 1 1 2 2 3 3 3 3 4 4 4 6
7 7 7 7 7 7 8 9 10 12 13 12 11 11 12 12 12 12 13 13 12 12 12 12 13 12 12 13 13 13 13 14 15 15 14 12 10 8 7 7 7 7 8 8 8 8 9 8 8 10 10 8 5 5 5 5 5 5 6 6 6 6 7 7 7 7 6 6 6 6 6 5 6 6 5 5 5 2 1 1 1 1 3 3 3 4 3 3
7 8 9 8 7 6 5 7 8 10 14 13 10 10 10 9 9 9 9 8 7 6 5 6 6 5 6 6 6 8 8 10 12 13 14 14 14 13 11 9 9 9 9 9 8 8 8 7 8 10 9 8 6 6 6 6 6 7 8 8 7 7 7 7 7 7 7 7 6 6 7 5 5 6 6 7 7 5 3 4 3 1 2 2 1 2 3 3
8 9 10 10 9 8 7 8 8 8 12 13 11 10 9 7 6 6 6 4 4 3 1 1 2 3 5 5 5 6 6 6 6 8 10 12 13 13 13 12 11 10 8 7 7 7 8 7 8 9 8 8 8 7 7 7 6 7 7 7 7 7 7 6 6 7 7 7 7 6 6 5 5 6 6 8 8 5 4 5 6 5 5 5 4 3 2 2
10 10 11 11 11 12 10 10 9 8 9 11 12 12 10 8 6 5 4 3 4 4 3 4 4 5 7 7 8 8 7 7 6 6 6 7 9 10 12 12 11 11 10 10 8 7 8 7 7 8 8 8 8 7 8 7 7 7 8 7 7 7 8 7 7 7 8 7 7 8 8 6 6 6 6 7 9 7 6 5 5 6 6 6 8 8 7 5
10 11 13 12 10 10 10 10 11 9 7 8 10 12 12 11 9 8 6 6 7 9 9 8 8 8 8 7 8 8 9 9 9 9 7 7 7 7 9 9 10 11 11 11 10 9 8 7 6 7 7 7 7 7 7 7 7 7 6 6 7 7 7 7 7 6 7 7 7 7 10 9 7 7 5 5 9 10 9 6 5 5 5 5 6 7 8 7
13 15 18 18 15 14 12 10 10 9 8 8 9 11 13 13 13 11 10 10 10 9 10 10 9 10 11 11 11 11 11 11 11 11 11 11 10 8 8 8 9 10 10 10 10 10 10 9 9 8 7 7 7 7 6 6 6 6 6 6 6 6 6 6 6 7 7 7 6 6 9 10 7 7 6 4 6 8 9 9 6 6 6 5 5 5 5 5
15 17 20 23 22 21 20 17 16 15 13 12 11 11 13 14 14 13 12 12 11 10 10 10 10 11 12 13 13 12 11 11 11 11 12 13 13 13 11 10 9 8 9 9 9 9 9 9 9 9 9 8 8 8 8 7 7 7 6 6 6 6 7 6 6 7 7 8 7 6 10 10 5 5 7 5 4 5 7 8 5 4 6 5 5 4 4 4
15 16 19 21 20 19 20 19 18 18 16 15 14 12 12 14 15 15 14 14 15 15 13 13 14 13 13 13 12 13 12 12 13 12 12 13 14 15 15 15 14 12 10 9 10 10 9 9 8 8 8 8 8 8 9 9 9 9 8 8 9 8 8 8 8 7 8 9 7 6 9 12 8 3 5 6 3 3 5 8 7 5 5 6 6 5 4 4
15 18 19 19 18 17 16 16 17 17 15 15 15 13 12 13 13 13 12 12 14 14 13 13 13 12 12 12 11 11 10 11 11 10 11 10 11 11 12 13 13 14 14 13 13 12 12 11 10 10 9 9 9 9 9 9 8 10 8 7 9 9 9 9 9 9 9 9 8 6 6 11 12 6 4 6 3 2 2 4 8 10 8 6 7 7 6 4
15 17 15 12 11 12 16 20 22 22 18 17 20 18 15 13 13 12 11 12 14 14 13 13 12 12 12 13 12 10 8 7 7 7 7 7 7 7 7 8 8 9 10 11 12 12 13 14 13 13 12 13 13 13 14 13 12 12 10 9 10 10 11 11 10 10 11 11 9 6 6 10 13 8 6 8 5 2 -0 -1 5 9 10 9 6 5 5 4
14 15 13 9 5 4 13 22 23 25 23 21 24 23 19 16 14 14 14 14 14 13 14 14 14 14 14 15 15 14 12 11 10 11 11 10 10 9 9 10 9 8 8 7 8 9 9 10 11 12 12 12 11 11 13 12 13 13 12 11 10 10 11 11 12 11 11 14 9 6 8 11 15 11 7 8 8 6 3 2 6 6 6 9 8 5 3 1
11 13 15 15 7 2 16 25 22 23 24 21 22 21 20 18 17 17 17 16 15 15 15 15 14 14 14 14 14 14 14 13 13 13 13 12 12 11 10 10 10 10 9 9 9 8 8 8 8 8 8 7 6 6 6 6 6 7 7 7 5 7 7 6 8 6 7 12 9 7 8 9 16 13 4 6 9 9 7 5 8 7 4 5 7 9 6 1
14 17 18 16 10 10 21 26 20 19 18 17 17 16 17 17 17 17 18 18 18 17 16 13 12 11 11 10 10 10 10 10 9 9 9 9 10 10 9 9 10 9 9 9 9 8 8 9 9 7 7 6 5 5 4 4 5 4 5 5 5 7 7 6 5 3 6 10 7 6 2 2 15 11 1 6 9 8 9 8 9 9 7 5 4 8 10 7
21 19 15 12 11 13 18 17 13 12 11 10 11 10 11 11 12 12 12 13 13 12 12 11 11 10 9 9 8 8 7 8 8 8 8 8 8 9 8 8 9 8 8 8 8 8 7 7 8 8 9 8 7 8 8 7 7 7 7 7 6 6 6 8 6 5 9 9 6 6 -1 1 14 8 1 8 7 5 7 7 8 9 8 8 6 5 8 9
17 12 11 12 11 10 10 8 6 6 5 6 6 6 7 8 8 9 8 8 8 7 8 9 8 8 7 7 6 6 7 7 7 9 9 8 8 8 7 7 7 7 8 7 7 7 7 6 6 7 7 7 8 8 9 10 9 9 8 7 7 3 3 7 8 8 12 9 7 8 3 6 15 10 5 7 5 4 6 5 6 7 7 7 8 7 7 8
13 12 14 14 11 8 7 6 5 6 7 8 8 8 8 8 9 9 8 8 8 8 8 7 7 6 6 7 7 7 7 7 7 7 8 8 8 7 6 7 8 8 8 8 7 7 7 7 7 7 6 6 7 7 7 8 9 9 7 6 7 5 4 8 8 8 9 9 8 7 3 8 15 15 11 10 7 3 5 7 4 5 7 5 5 5 5 6
14 14 13 10 8 8 8 9 10 11 11 10 9 9 8 8 8 7 6 6 6 6 6 7 7 6 6 6 7 7 7 7 7 6 6 8 8 7 7 8 7 8 8 8 8 8 7 7 6 6 7 7 7 7 7 7 6 8 8 6 8 8 6 7 9 9 9 10 10 6 3 4 9 13 12 12 12 6 5 10 6 3 6 5 3 4 4 5
10 10 10 10 10 11 11 11 11 10 9 8 9 8 7 8 8 7 7 6 6 7 6 6 6 6 7 6 5 5 5 6 7 6 6 7 7 6 7 7 8 9 9 8 9 8 7 8 7 6 6 7 7 7 7 6 5 6 8 7 8 9 8 6 8 9 7 9 10 6 4 4 5 10 10 9 11 7 4 9 10 6 5 7 6 5 6 6
12 12 11 11 10 9 8 8 9 9 8 8 8 8 8 9 9 8 9 8 9 9 9 9 9 8 9 8 8 7 6 6 7 7 7 7 7 6 5 7 7 7 8 8 8 8 8 9 10 8 7 6 7 7 7 7 6 4 6 7 6 7 8 8 7 7 6 9 11 8 6 5 6 10 11 9 8 7 2 2 9 10 4 5 7 6 6 7
12 10 8 8 8 9 9 9 9 9 8 8 8 8 8 9 9 9 9 9 10 10 10 11 12 11 11 11 11 11 10 9 9 9 9 8 9 9 8 8 8 7 7 8 8 8 10 9 9 8 8 8 7 7 6 7 8 8 7 8 7 6 6 7 6 6 6 8 11 11 8 6 5 6 9 11 9 8 6 2 6 12 8 3 5 5 5 5
7 7 9 10 10 10 9 8 8 8 8 9 9 10 10 11 12 13 14 15 15 16 16 16 16 16 16 15 15 15 14 14 13 13 12 11 12 12 11 10 10 10 10 10 10 10 10 10 10 9 9 9 9 8 7 7 8 8 8 9 10 9 8 9 9 9 9 9 10 10 9 6 5 4 6 10 10 8 8 4 2 9 12 9 6 5 6 5
8 10 10 8 7 7 7 7 8 8 10 11 12 14 15 16 17 17 17 16 14 14 14 13 13 12 12 12 12 13 13 13 12 12 12 12 12 13 14 13 12 13 12 11 11 10 10 11 12 12 10 10 10 10 11 10 9 8 9 9 10 10 9 8 9 9 9 11 11 10 10 8 6 5 3 4 7 7 7 7 3 4 9 12 10 8 7 8
10 9 7 6 6 6 7 7 9 11 13 15 17 17 17 16 15 12 11 10 8 8 7 6 6 6 5 6 6 6 7 7 7 7 7 8 8 8 10 10 10 10 10 9 9 9 8 9 11 12 10 9 9 10 10 10 9 9 8 8 9 10 9 8 9 9 6 7 9 10 12 13 9 8 8 4 4 6 5 6 6 4 5 8 11 10 8 7
7 5 5 6 6 7 8 10 13 16 18 18 16 14 12 10 9 7 6 5 5 5 5 4 4 5 5 5 5 6 6 5 5 5 5 6 5 5 6 5 5 5 5 5 6 6 5 6 7 8 7 7 7 7 7 7 7 7 6 6 6 6 7 8 10 10 7 6 8 8 9 12 11 10 12 12 9 9 8 8 7 6 4 5 8 11 11 9
5 5 5 6 7 8 10 13 17 18 16 14 11 9 8 7 6 5 5 5 5 5 5 5 5 6 6 6 7 6 6 7 7 7 6 6 6 6 6 6 6 5 5 4 4 5 5 5 5 4 3 4 4 4 6 6 6 6 5 5 4 4 5 5 6 9 9 6 6 5 5 8 10 8 8 11 12 12 12 12 10 9 7 6 7 9 11 11
5 5 6 7 8 10 13 17 18 15 11 9 8 6 5 4 4 5 5 5 5 6 7 7 8 9 9 10 11 11 11 11 10 10 10 11 10 9 8 7 8 8 8 7 6 7 7 6 7 7 6 5 4 5 6 7 8 8 8 7 6 7 6 6 7 7 5 4 5 6 6 6 7 7 7 7 9 9 10 11 11 10 8 6 7 8 9 11
5 6 8 8 8 11 15 17 15 12 9 8 6 5 4 5 5 5 5 5 5 7 9 10 12 13 14 16 17 19 20 20 18 18 18 18 17 17 16 15 14 14 14 13 12 11 10 9 9 10 11 10 9 9 8 8 8 8 10 10 9 9 8 8 8 3 1 6 7 4 6 8 9 9 8 5 5 6 6 6 7 8 7 6 6 6 7 8
5 7 7 7 9 13 16 16 13 10 8 6 5 4 5 6 5 4 4 5 7 10 12 14 16 18 18 19 21 22 24 25 25 25 24 23 23 24 24 23 22 20 20 20 19 18 18 16 13 13 14 13 11 11 11 12 11 10 11 12 12 14 12 8 5 4 7 11 6 1 5 8 7 6 6 7 9 8 6 5 4 5 5 5 5 6 7 9
6 7 7 7 9 14 17 15 11 9 6 4 3 4 6 6 4 4 6 8 9 12 15 17 19 21 22 22 23 25 25 26 26 26 26 26 25 25 25 26 26 26 24 24 23 22 22 22 22 22 21 19 17 16 15 15 15 14 11 10 12 14 15 12 9 10 13 13 9 8 8 6 6 6 6 9 11 10 8 8 7 6 6 5 5 4 5 7
7 7 7 8 10 16 17 14 10 8 5 4 3 5 6 5 4 5 7 8 9 12 16 18 20 22 23 23 25 27 27 27 27 27 26 26 25 26 26 26 25 26 26 26 26 25 23 23 23 23 23 21 21 21 23 23 23 20 17 14 11 8 10 15 18 19 17 14 15 17 12 9 11 11 9 9 8 8 10 12 12 10 10 9 8 7 4 4
7 7 7 8 12 17 16 13 11 8 5 4 3 5 5 4 5 6 7 9 11 13 16 19 21 22 23 25 26 27 27 28 28 27 26 25 24 23 24 24 23 22 23 24 25 25 26 26 24 23 23 21 20 21 22 22 22 23 21 17 15 13 14 18 24 27 24 18 19 22 19 14 11 10 13 15 14 13 13 13 12 10 10 10 10 9 9 8
7 7 7 9 13 16 15 12 11 8 5 4 4 5 5 5 6 7 9 10 12 16 19 19 21 24 24 25 26 26 25 25 24 23 22 22 22 22 22 23 22 22 22 22 22 22 24 25 23 25 28 26 23 22 20 19 20 20 18 19 23 25 25 23 21 21 22 22 21 20 19 18 16 16 17 18 17 17 16 14 15 14 12 10 9 8 9 9
8 7 7 10 14 16 14 12 11 9 6 4 4 5 5 5 6 7 10 11 13 18 20 19 21 25 25 25 25 24 23 23 22 22 21 20 21 21 20 21 21 21 21 21 21 21 22 23 21 21 24 24 23 21 21 21 19 17 21 27 30 28 26 25 22 19 20 24 25 23 21 23 25 23 20 17 17 17 17 16 16 17 16 14 12 10 9 7
Height
5713 5712 5711 5711 5710 5709 5708 5707 5707 5706 5705 5705 5704 5704 5704 5703 5703 5703 5702 5702 5702 5701 5701 5701 5701 5700 5700 5700 5700 5700 5700 5700 5700 5701 5701 5701 5701 5701 5701 5701 5702 5702 5702 5702 5703 5704 5704 5705 5705 5706 5706 5707 5708 5709 5710 5711 5713 5713 5714 5716 5717 5719 5720 5721 5723 5725 5727 5728 5729 5730 5732 5735 5737 5739 5742 5744 5746 5748 5751 5753 5757 5759 5762 5764 5767 5769 5770 5772
5710 5709 5708 5707 5706 5706 5705 5704 5703 5703 5702 5702 5701 5701 5701 5700 5700 5700 5700 5700 5699 5699 5699 5699 5698 5698 5698 5698 5698 5698 5698 5698 5698 5699 5699 5699 5699 5699 5699 5700 5700 5700 5700 5701 5701 5701 5702 5703 5703 5704 5704 5705 5706 5707 5708 5709 5710 5711 5711 5713 5715 5715 5716 5718 5720 5722 5724 5725 5726 5728 5730 5732 5733 5735 5738 5740 5742 5744 5747 5749 5752 5755 5758 5760 5763 5765 5766 5768
5706 5705 5705 5704 5703 5702 5701 5701 5700 5699 5699 5698 5698 5698 5698 5697 5697 5697 5697 5697 5697 5696 5696 5696 5696 5696 5695 5695 5695 5695 5695 5695 5696 5696 5696 5697 5697 5697 5697 5698 5698 5698 5699 5699 5699 5699 5700 5700 5701 5702 5702 5703 5703 5704 5705 5706 5707 5708 5709 5711 5711 5712 5713 5715 5717 5718 5720 5722 5724 5725 5726 5728 5730 5732 5734 5736 5738 5740 5743 5745 5748 5750 5753 5756 5758 5760 5763 5764
5703 5702 5701 5700 5700 5699 5698 5697 5697 5696 5695 5695 5694 5694 5694 5694 5694 5694 5694 5694 5694 5694 5693 5693 5693 5693 5693 5693 5693 5693 5692 5693 5693 5694 5694 5694 5694 5695 5695 5695 5696 5696 5697 5697 5697 5697 5698 5698 5699 5699 5700 5701 5701 5702 5703 5703 5704 5706 5707 5707 5708 5709 5711 5712 5714 5715 5717 5719 5721 5722 5723 5725 5726 5728 5730 5732 5734 5737 5739 5741 5743 5745 5747 5750 5753 5755 5758 5760
5700 5699 5698 5697 5696 5696 5695 5694 5694 5693 5692 5691 5691 5690 5690 5690 5691 5691 5691 5691 5691 5691 5691 5690 5691 5690 5690 5690 5690 5690 5689 5690 5690 5691 5691 5692 5692 5692 5693 5693 5693 5694 5694 5695 5695 5696 5696 5696 5697 5697 5698 5698 5699 5699 5700 5701 5702 5703 5704 5704 5705 5707 5709 5709 5711 5713 5714 5716 5717 5719 5720 5722 5724 5725 5727 5729 5732 5733 5734 5737 5739 5741 5743 5745 5748 5750 5753 5756
5697 5696 5695 5694 5693 5692 5691 5691 5690 5690 5689 5688 5687 5687 5686 5686 5687 5687 5688 5688 5688 5688 5688 5687 5687 5688 5687 5687 5687 5687 5686 5686 5687 5688 5688 5689 5689 5689 5690 5690 5691 5691 5692 5692 5693 5693 5694 5694 5695 5695 5696 5696 5697 5697 5697 5698 5700 5701 5701 5702 5703 5705 5706 5706 5708 5709 5711 5713 5714 5716 5718 5719 5721 5722 5724 5727 5728 5728 5730 5733 5735 5737 5739 5741 5743 5745 5748 5751
5693 5693 5692 5690 5689 5688 5688 5687 5687 5686 5686 5685 5684 5683 5683 5682 5683 5683 5684 5684 5684 5684 5684 5684 5684 5684 5684 5684 5684 5684 5683 5683 5684 5685 5685 5685 5686 5687 5687 5687 5688 5688 5689 5689 5690 5691 5691 5692 5692 5693 5693 5694 5694 5694 5695 5696 5697 5698 5698 5699 5701 5702 5703 5703 5704 5706 5708 5709 5711 5713 5715 5716 5717 5718 5721 5723 5724 5724 5727 5729 5731 5733 5735 5737 5738 5741 5743 5746
5689 5689 5688 5687 5686 5685 5684 5683 5683 5682 5682 5682 5681 5680 5679 5678 5679 5679 5679 5680 5680 5680 5681 5681 5681 5681 5681 5681 5681 5681 5681 5680 5681 5682 5682 5682 5683 5684 5684 5684 5685 5685 5686 5686 5687 5688 5688 5689 5690 5690 5691 5692 5692 5692 5693 5694 5695 5695 5696 5696 5698 5699 5699 5700 5701 5703 5705 5706 5708 5710 5711 5712 5713 5715 5717 5718 5718 5721 5723 5726 5728 5729 5731 5732 5734 5736 5739 5741
5685 5684 5684 5683 5682 5681 5680 5679 5679 5678 5678 5678 5678 5677 5676 5675 5675 5675 5675 5675 5676 5676 5676 5677 5677 5677 5678 5678 5678 5678 5677 5677 5678 5678 5679 5679 5680 5680 5680 5681 5682 5682 5683 5683 5684 5684 5685 5686 5686 5687 5688 5688 5689 5690 5690 5691 5692 5692 5693 5694 5696 5697 5697 5697 5699 5700 5701 5703 5705 5706 5707 5708 5710 5712 5712 5712 5714 5718 5720 5722 5724 5725 5727 5728 5730 5732 5734 5737
5681 5680 5680 5679 5678 5677 5676 5675 5674 5674 5673 5673 5674 5673 5672 5671 5671 5670 5670 5671 5671 5671 5672 5672 5673 5673 5674 5674 5674 5674 5674 5674 5674 5675 5676 5676 5676 5676 5677 5678 5678 5679 5679 5680 5680 5681 5682 5682 5683 5684 5684 5685 5686 5687 5687 5688 5689 5689 5690 5691 5692 5693 5694 5695 5696 5697 5698 5699 5701 5702 5703 5705 5707 5709 5707 5708 5712 5715 5716 5718 5719 5721 5723 5725 5726 5728 5730 5732
5677 5676 5676 5675 5674 5673 5672 5671 5670 5669 5669 5669 5669 5669 5668 5668 5667 5667 5666 5666 5666 5667 5667 5667 5668 5668 5669 5670 5670 5671 5670 5670 5671 5671 5672 5672 5672 5673 5673 5674 5675 5675 5676 5676 5677 5677 5678 5678 5679 5680 5680 5682 5683 5684 5684 5686 5686 5686 5687 5688 5689 5690 5692 5692 5693 5694 5695 5696 5697 5699 5700 5702 5705 5705 5704 5706 5709 5710 5712 5713 5715 5717 5718 5721 5722 5724 5726 5728
5674 5673 5672 5671 5670 5669 5668 5667 5666 5665 5664 5664 5664 5663 5663 5663 5663 5663 5662 5662 5662 5662 5662 5662 5663 5663 5664 5665 5666 5666 5667 5666 5667 5667 5668 5668 5669 5669 5670 5670 5671 5671 5672 5672 5673 5673 5673 5674 5675 5676 5677 5678 5679 5680 5681 5682 5683 5683 5684 5685 5686 5687 5688 5690 5690 5691 5691 5693 5694 5695 5697 5699 5701 5701 5701 5705 5706 5706 5708 5709 5711 5712 5714 5716 5718 5720 5722 5723
5671 5669 5668 5667 5666 5665 5664 5663 5662 5660 5660 5659 5659 5658 5658 5658 5658 5658 5658 5658 5658 5658 5658 5658 5658 5658 5659 5660 5661 5662 5662 5662 5662 5663 5664 5664 5665 5665 5666 5666 5667 5667 5667 5668 5668 5669 5670 5670 5671 5672 5673 5674 5675 5676 5677 5678 5679 5679 5680 5681 5682 5683 5685 5686 5687 5688 5688 5690 5691 5692 5694 5696 5697 5697 5699 5702 5702 5703 5704 5706 5708 5709 5710 5712 5714 5716 5717 5719
5667 5666 5664 5663 5662 5661 5660 5659 5657 5656 5655 5655 5654 5653 5652 5652 5653 5653 5653 5653 5653 5653 5653 5653 5653 5653 5654 5655 5655 5656 5657 5657 5658 5658 5659 5660 5660 5661 5662 5662 5663 5663 5663 5664 5664 5665 5666 5666 5667 5668 5668 5669 5670 5672 5673 5674 5674 5675 5676 5677 5678 5680 5682 5683 5683 5684 5685 5686 5688 5688 5690 5693 5693 5694 5696 5697 5699 5700 5701 5702 5704 5706 5707 5708 5710 5712 5713 5714
5663 5661 5660 5659 5658 5656 5655 5654 5653 5652 5651 5650 5649 5648 5647 5647 5647 5647 5648 5648 5649 5648 5648 5648 5648 5648 5649 5649 5650 5651 5651 5652 5653 5654 5654 5655 5656 5656 5657 5658 5658 5659 5659 5659 5660 5661 5661 5661 5662 5663 5664 5665 5666 5667 5668 5669 5670 5671 5672 5673 5675 5676 5678 5679 5679 5680 5680 5682 5684 5685 5687 5689 5690 5691 5693 5693 5695 5696 5697 5699 5701 5702 5704 5705 5706 5707 5708 5710
5658 5657 5656 5654 5653 5652 5651 5649 5648 5647 5646 5645 5644 5643 5642 5642 5642 5642 5642 5643 5643 5643 5643 5643 5643 5643 5644 5644 5645 5645 5646 5646 5648 5648 5649 5650 5650 5651 5652 5653 5654 5654 5654 5655 5655 5656 5656 5657 5657 5658 5659 5660 5661 5662 5663 5664 5665 5666 5667 5669 5671 5672 5673 5674 5675 5676 5677 5678 5680 5682 5683 5685 5686 5688 5689 5690 5691 5693 5694 5695 5697 5698 5700 5701 5703 5704 5704 5705
5654 5653 5651 5650 5648 5647 5646 5644 5643 5642 5641 5640 5640 5639 5638 5637 5637 5636 5636 5637 5637 5638 5638 5638 5638 5638 5638 5639 5639 5640 5640 5641 5642 5643 5644 5644 5645 5646 5647 5648 5649 5649 5650 5650 5650 5651 5652 5652 5653 5653 5654 5655 5656 5657 5657 5658 5660 5662 5663 5665 5666 5668 5669 5670 5671 5672 5673 5674 5675 5677 5679 5681 5682 5684 5686 5687 5688 5689 5691 5692 5693 5694 5696 5697 5698 5699 5700 5702
5650 5648 5647 5645 5644 5643 5641 5639 5638 5637 5637 5636 5635 5634 5633 5632 5632 5632 5631 5631 5632 5632 5632 5632 5633 5633 5633 5633 5634 5634 5635 5636 5637 5637 5638 5639 5640 5640 5641 5642 5643 5644 5644 5645 5645 5646 5646 5647 5648 5648 5649 5650 5651 5652 5653 5655 5657 5658 5658 5659 5661 5662 5663 5665 5666 5667 5668 5669 5670 5672 5675 5677 5678 5680 5681 5683 5684 5686 5687 5688 5690 5691 5692 5692 5693 5694 5696 5698
5646 5644 5643 5641 5640 5638 5637 5635 5633 5633 5632 5631 5631 5630 5629 5628 5627 5627 5627 5627 5627 5627 5627 5628 5628 5628 5628 5628 5629 5629 5630 5630 5631 5632 5632 5633 5634 5634 5636 5637 5637 5638 5639 5639 5640 5641 5641 5642 5642 5643 5645 5646 5647 5648 5649 5649 5650 5650 5651 5652 5654 5655 5657 5659 5661 5662 5663 5664 5666 5668 5670 5672 5673 5675 5677 5678 5680 5681 5683 5685 5686 5687 5687 5688 5689 5690 5692 5693
5641 5640 5638 5637 5635 5634 5632 5631 5629 5629 5628 5627 5626 5625 5625 5624 5623 5623 5623 5623 5622 5622 5623 5623 5623 5623 5623 5624 5624 5624 5625 5625 5625 5626 5627 5628 5628 5629 5630 5631 5631 5632 5633 5634 5634 5635 5636 5636 5638 5639 5640 5640 5641 5642 5642 5643 5644 5645 5646 5647 5649 5650 5652 5654 5655 5656 5658 5659 5661 5663 5664 5666 5668 5670 5672 5673 5675 5677 5679 5680 5681 5682 5683 5684 5685 5686 5687 5688
5637 5635 5633 5632 5631 5629 5628 5626 5624 5624 5624 5622 5621 5621 5620 5620 5619 5618 5619 5618 5618 5618 5618 5618 5619 5619 5619 5619 5619 5619 5620 5620 5620 5621 5622 5622 5622 5623 5624 5625 5625 5626 5627 5628 5628 5629 5630 5631 5633 5634 5633 5634 5635 5635 5637 5638 5639 5641 5642 5642 5644 5645 5646 5648 5649 5651 5652 5654 5655 5657 5659 5661 5663 5665 5666 5668 5671 5673 5674 5675 5676 5677 5678 5680 5681 5681 5682 5683
5631 5630 5628 5626 5625 5624 5622 5621 5620 5619 5619 5618 5617 5616 5616 5615 5614 5614 5614 5614 5613 5614 5613 5614 5614 5614 5614 5614 5614 5615 5615 5615 5615 5616 5616 5617 5617 5618 5618 5619 5619 5620 5621 5622 5623 5623 5624 5626 5627 5626 5627 5628 5629 5631 5632 5632 5634 5635 5636 5637 5638 5638 5639 5641 5643 5644 5646 5647 5649 5650 5653 5656 5657 5659 5661 5663 5666 5667 5668 5669 5670 5672 5673 5675 5676 5676 5677 5678
5625 5623 5622 5620 5619 5618 5616 5615 5614 5613 5613 5612 5611 5611 5611 5610 5609 5609 5609 5608 5608 5608 5608 5608 5608 5608 5608 5609 5609 5610 5609 5610 5610 5611 5611 5611 5612 5612 5613 5613 5613 5614 5615 5616 5617 5617 5618 5620 5620 5620 5622 5623 5624 5625 5625 5626 5628 5629 5630 5631 5632 5632 5633 5634 5636 5637 5639 5641 5642 5644 5646 5649 5651 5654 5657 5658 5660 5662 5662 5663 5665 5666 5667 5668 5669 5670 5671 5672
5620 5618 5616 5614 5612 5611 5610 5609 5608 5607 5607 5606 5605 5605 5605 5604 5603 5603 5603 5603 5603 5603 5602 5602 5602 5603 5603 5603 5603 5604 5604 5604 5605 5605 5606 5606 5606 5607 5607 5607 5607 5609 5609 5610 5611 5611 5612 5614 5614 5615 5616 5617 5618 5619 5620 5621 5622 5623 5624 5625 5626 5626 5627 5628 5629 5630 5632 5633 5636 5638 5639 5643 5647 5648 5651 5653 5654 5656 5657 5657 5658 5659 5660 5661 5662 5663 5663 5664
5614 5612 5610 5608 5606 5605 5604 5603 5602 5601 5600 5600 5599 5599 5598 5597 5597 5597 5597 5597 5597 5597 5597 5597 5597 5597 5597 5597 5598 5598 5598 5599 5599 5600 5600 5600 5601 5601 5601 5602 5602 5603 5603 5604 5604 5605 5606 5607 5608 5609 5610 5611 5612 5612 5614 5615 5615 5617 5618 5619 5619 5619 5620 5622 5622 5623 5624 5626 5629 5631 5632 5636 5641 5643 5644 5646 5648 5650 5651 5651 5651 5652 5652 5652 5653 5654 5655 5657
5608 5606 5604 5602 5599 5598 5597 5597 5596 5595 5594 5594 5593 5593 5592 5591 5591 5591 5591 5591 5591 5592 5592 5592 5592 5592 5592 5592 5592 5592 5592 5593 5593 5594 5594 5595 5595 5595 5595 5596 5596 5596 5597 5598 5599 5599 5600 5601 5602 5603 5604 5605 5605 5606 5607 5608 5609 5610 5611 5612 5612 5612 5614 5615 5615 5616 5617 5619 5623 5624 5625 5629 5634 5637 5638 5640 5642 5644 5645 5645 5644 5643 5642 5642 5643 5644 5646 5648
5603 5600 5598 5597 5594 5592 5592 5591 5590 5589 5588 5587 5587 5587 5586 5585 5585 5585 5585 5585 5586 5586 5586 5586 5587 5587 5587 5587 5586 5587 5586 5587 5588 5588 5588 5589 5589 5590 5589 5590 5590 5590 5591 5592 5593 5594 5594 5595 5596 5596 5597 5598 5599 5600 5599 5600 5602 5603 5605 5605 5605 5606 5607 5607 5608 5608 5609 5612 5614 5617 5619 5622 5627 5631 5633 5634 5636 5637 5637 5637 5634 5631 5631 5633 5635 5637 5641 5644
5598 5596 5594 5593 5591 5589 5587 5586 5585 5583 5582 5581 5581 5581 5580 5580 5580 5580 5580 5579 5580 5580 5580 5581 5581 5581 5582 5581 5581 5582 5581 5582 5582 5582 5583 5583 5583 5584 5584 5584 5584 5584 5585 5586 5587 5588 5588 5588 5589 5590 5591 5592 5593 5592 5592 5594 5595 5596 5598 5598 5598 5600 5599 5601 5601 5600 5602 5603 5605 5612 5614 5614 5619 5625 5626 5627 5628 5628 5628 5627 5623 5621 5624 5627 5630 5634 5638 5640
5594 5592 5590 5589 5588 5586 5584 5582 5580 5578 5577 5576 5576 5575 5575 5575 5574 5574 5575 5574 5574 5575 5575 5575 5576 5576 5576 5576 5576 5576 5576 5577 5576 5576 5577 5577 5578 5579 5578 5578 5578 5579 5580 5581 5581 5581 5582 5583 5583 5584 5585 5586 5586 5585 5585 5588 5587 5589 5591 5591 5592 5592 5592 5593 5592 5594 5594 5592 5600 5608 5608 5607 5611 5616 5618 5618 5618 5617 5617 5614 5612 5615 5620 5622 5626 5630 5632 5634
5590 5588 5587 5585 5584 5582 5580 5577 5575 5573 5572 5572 5571 5571 5570 5570 5570 5569 5569 5569 5569 5569 5569 5570 5570 5570 5571 5571 5571 5571 5571 5571 5571 5571 5571 5571 5572 5573 5572 5572 5573 5573 5573 5575 5576 5575 5576 5577 5577 5579 5579 5579 5579 5578 5580 5581 5580 5582 5583 5583 5585 5584 5585 5585 5584 5587 5583 5584 5597 5604 5602 5601 5600 5604 5611 5610 5606 5605 5605 5603 5605 5611 5616 5619 5622 5624 5626 5628
5587 5585 5583 5582 5580 5578 5576 5574 5571 5570 5569 5568 5567 5567 5566 5566 5565 5564 5564 5564 5564 5564 5564 5564 5564 5565 5565 5565 5565 5565 5565 5565 5565 5566 5565 5565 5566 5566 5566 5566 5566 5567 5567 5568 5569 5569 5570 5571 5571 5572 5572 5572 5572 5572 5573 5573 5574 5576 5576 5577 5577 5576 5577 5577 5577 5578 5574 5580 5593 5596 5595 5590 5586 5596 5603 5597 5595 5597 5597 5598 5601 5608 5613 5615 5616 5617 5619 5620
5583 5581 5580 5578 5576 5574 5572 5570 5568 5567 5566 5564 5564 5563 5562 5562 5561 5560 5560 5559 5560 5559 5559 5559 5559 5559 5559 5559 5559 5560 5560 5560 5560 5560 5559 5560 5560 5560 5560 5560 5560 5561 5561 5562 5562 5562 5563 5564 5564 5565 5565 5565 5566 5565 5566 5567 5567 5569 5569 5569 5569 5568 5568 5567 5569 5570 5569 5577 5586 5587 5585 5576 5576 5590 5590 5585 5589 5592 5593 5594 5596 5601 5604 5606 5607 5607 5609 5611
5579 5577 5576 5574 5573 5571 5569 5567 5565 5564 5563 5562 5561 5560 5559 5558 5558 5557 5556 5556 5556 5555 5555 5555 5554 5554 5554 5554 5554 5554 5554 5554 5554 5554 5553 5554 5553 5553 5553 5554 5554 5554 5554 5555 5554 5554 5556 5556 5557 5558 5557 5558 5558 5559 5560 5560 5561 5561 5562 5562 5561 5560 5559 5559 5562 5562 5564 5572 5576 5577 5572 5563 5569 5580 5578 5580 5586 5585 5586 5587 5588 5591 5593 5595 5598 5598 5600 5602
5576 5574 5572 5571 5570 5568 5567 5565 5563 5562 5560 5559 5558 5556 5556 5555 5554 5553 5552 5552 5552 5551 5551 5550 5550 5549 5549 5548 5548 5548 5548 5548 5548 5548 5547 5547 5547 5546 5546 5547 5547 5547 5546 5546 5546 5547 5547 5548 5550 5550 5549 5550 5551 5552 5552 5553 5553 5553 5554 5552 5551 5553 5553 5552 5555 5554 5557 5563 5564 5564 5559 5554 5562 5569 5570 5576 5577 5575 5578 5579 5579 5582 5584 5585 5588 5589 5590 5592
5572 5571 5569 5568 5567 5565 5564 5562 5560 5559 5557 5556 5555 5553 5552 5551 5550 5550 5549 5548 5547 5547 5546 5545 5545 5545 5544 5543 5543 5542 5542 5541 5542 5542 5540 5540 5539 5539 5539 5539 5539 5539 5539 5538 5538 5538 5538 5540 5542 5542 5542 5543 5544 5544 5544 5544 5544 5543 5544 5543 5543 5547 5548 5546 5546 5546 5549 5551 5550 5552 5550 5549 5554 5559 5561 5566 5567 5567 5568 5569 5572 5573 5574 5577 5578 5579 5580 5581
5569 5568 5566 5565 5564 5562 5560 5559 5557 5555 5554 5552 5551 5550 5549 5547 5546 5545 5544 5544 5543 5542 5542 5540 5539 5539 5538 5538 5537 5537 5536 5535 5534 5534 5533 5533 5532 5532 5532 5532 5532 5532 5531 5531 5530 5530 5529 5530 5533 5534 5534 5535 5535 5535 5535 5534 5534 5534 5534 5534 5536 5539 5539 5537 5537 5538 5539 5538 5539 5543 5544 5543 5545 5547 5550 5555 5558 5558 5555 5559 5564 5563 5565 5568 5569 5570 5572 5572
5566 5565 5563 5562 5560 5559 5557 5555 5553 5552 5550 5549 5547 5546 5545 5543 5542 5541 5539 5538 5538 5537 5536 5535 5534 5533 5532 5531 5531 5530 5529 5528 5527 5527 5526 5524 5523 5524 5524 5523 5524 5524 5523 5523 5522 5521 5521 5522 5524 5525 5524 5525 5526 5525 5525 5525 5525 5525 5525 5526 5528 5528 5527 5528 5528 5528 5527 5526 5530 5536 5537 5535 5534 5536 5540 5545 5548 5549 5546 5547 5552 5554 5555 5557 5559 5561 5562 5564
5563 5561 5560 5558 5557 5555 5553 5552 5550 5548 5546 5544 5543 5541 5540 5539 5537 5535 5534 5533 5532 5531 5530 5529 5528 5527 5526 5525 5524 5523 5522 5520 5520 5519 5518 5516 5514 5515 5516 5515 5515 5515 5514 5514 5513 5512 5512 5513 5514 5515 5514 5514 5514 5514 5515 5515 5516 5516 5516 5517 5518 5517 5517 5519 5518 5516 5517 5518 5521 5527 5529 5526 5524 5525 5530 5534 5537 5540 5538 5536 5539 5544 5546 5546 5549 5552 5553 5555
5560 5559 5557 5555 5554 5552 5550 5548 5546 5544 5542 5540 5538 5536 5535 5533 5532 5530 5528 5527 5526 5525 5523 5522 5521 5520 5519 5518 5516 5515 5514 5512 5511 5510 5509 5507 5505 5506 5507 5505 5505 5505 5505 5505 5503 5502 5503 5502 5503 5506 5505 5503 5503 5503 5504 5505 5506 5506 5507 5507 5507 5507 5508 5508 5507 5508 5510 5510 5512 5516 5518 5515 5515 5518 5520 5523 5527 5529 5530 5528 5527 5531 5536 5537 5538 5541 5543 5546
5558 5556 5554 5552 5550 5548 5546 5544 5542 5540 5538 5536 5534 5532 5530 5528 5526 5525 5523 5521 5520 5519 5517 5516 5514 5512 5511 5510 5508 5507 5505 5504 5503 5501 5499 5497 5496 5496 5496 5496 5495 5495 5494 5494 5493 5493 5492 5491 5492 5496 5496 5494 5493 5492 5492 5495 5495 5495 5496 5496 5496 5497 5498 5497 5497 5499 5500 5500 5502 5505 5504 5503 5507 5510 5510 5513 5516 5518 5520 5520 5517 5518 5523 5527 5529 5530 5533 5536
5555 5553 5551 5549 5547 5545 5543 5540 5538 5536 5534 5531 5529 5527 5525 5523 5522 5520 5518 5516 5515 5513 5512 5510 5508 5506 5504 5502 5501 5499 5497 5495 5494 5491 5489 5488 5487 5485 5485 5486 5485 5485 5484 5484 5482 5482 5481 5479 5481 5485 5485 5485 5484 5482 5483 5483 5482 5484 5485 5484 5485 5486 5487 5486 5487 5490 5490 5489 5491 5493 5492 5493 5496 5498 5500 5503 5505 5508 5510 5511 5509 5508 5510 5515 5519 5520 5522 5524
5552 5550 5548 5546 5543 5541 5539 5536 5534 5532 5529 5527 5524 5522 5521 5519 5517 5515 5514 5512 5510 5508 5507 5504 5502 5500 5498 5496 5494 5491 5489 5487 5484 5482 5479 5478 5477 5474 5474 5475 5474 5474 5473 5472 5471 5471 5470 5467 5469 5473 5474 5474 5473 5473 5473 5472 5471 5473 5472 5472 5473 5473 5474 5474 5475 5480 5480 5478 5481 5483 5481 5480 5483 5486 5490 5493 5495 5497 5500 5501 5501 5499 5499 5502 5506 5509 5511 5512
5549 5548 5545 5543 5540 5538 5535 5532 5530 5527 5524 5522 5520 5518 5517 5515 5513 5511 5510 5508 5505 5503 5501 5499 5497 5494 5491 5488 5486 5483 5481 5477 5475 5472 5469 5469 5467 5464 5463 5463 5462 5462 5461 5461 5460 5459 5457 5456 5457 5460 5462 5462 5462 5461 5461 5460 5461 5461 5460 5461 5461 5461 5463 5463 5462 5466 5467 5468 5473 5474 5469 5468 5471 5474 5477 5480 5484 5486 5489 5491 5492 5490 5489 5490 5492 5496 5499 5501
5547 5545 5543 5540 5537 5534 5531 5528 5526 5523 5520 5518 5516 5514 5513 5511 5509 5507 5505 5503 5500 5498 5495 5492 5490 5487 5483 5480 5477 5473 5470 5467 5464 5461 5458 5458 5455 5452 5451 5450 5449 5450 5448 5448 5448 5446 5445 5444 5444 5447 5449 5448 5449 5449 5448 5448 5448 5448 5449 5450 5450 5451 5452 5451 5452 5454 5452 5455 5463 5461 5458 5459 5461 5462 5464 5466 5471 5474 5476 5479 5480 5480 5479 5479 5480 5483 5485 5488
5544 5542 5540 5537 5534 5530 5527 5524 5522 5519 5517 5514 5512 5510 5508 5506 5505 5502 5500 5497 5494 5492 5488 5485 5481 5477 5473 5470 5466 5462 5458 5455 5452 5448 5446 5445 5442 5439 5439 5437 5436 5436 5434 5434 5435 5433 5432 5432 5432 5434 5435 5434 5436 5438 5436 5435 5435 5435 5436 5437 5438 5440 5439 5439 5443 5441 5438 5445 5451 5447 5447 5450 5450 5450 5452 5453 5458 5462 5464 5466 5467 5468 5467 5467 5467 5469 5472 5474
5541 5538 5536 5533 5530 5527 5524 5520 5518 5516 5514 5511 5509 5507 5504 5502 5499 5497 5494 5490 5487 5484 5479 5475 5471 5466 5462 5457 5454 5450 5445 5441 5438 5434 5432 5429 5427 5426 5425 5424 5423 5422 5420 5421 5421 5419 5418 5420 5420 5420 5420 5422 5424 5424 5422 5421 5422 5422 5422 5424 5426 5426 5426 5428 5429 5428 5431 5436 5436 5435 5438 5438 5436 5436 5436 5441 5447 5450 5451 5453 5454 5455 5456 5455 5454 5455 5458 5460
5538 5535 5532 5529 5526 5523 5520 5517 5514 5512 5510 5507 5505 5502 5500 5497 5494 5491 5488 5484 5480 5476 5471 5466 5461 5456 5450 5445 5441 5436 5432 5428 5424 5421 5417 5414 5413 5412 5411 5411 5410 5408 5407 5407 5406 5405 5405 5406 5408 5407 5407 5410 5411 5409 5407 5407 5407 5409 5410 5411 5413 5412 5413 5415 5415 5419 5424 5419 5416 5428 5431 5422 5422 5423 5422 5427 5432 5433 5437 5441 5443 5444 5444 5443 5442 5442 5443 5445
5534 5531 5528 5525 5522 5519 5516 5513 5510 5508 5506 5503 5500 5497 5494 5491 5488 5485 5481 5477 5473 5468 5463 5457 5451 5446 5439 5433 5429 5424 5419 5415 5412 5409 5405 5402 5400 5398 5397 5398 5397 5395 5395 5394 5393 5392 5391 5393 5395 5393 5393 5397 5398 5395 5393 5392 5392 5395 5396 5399 5402 5401 5401 5403 5405 5409 5409 5398 5400 5417 5416 5406 5410 5413 5411 5415 5418 5419 5423 5426 5428 5430 5430 5430 5431 5429 5429 5431
5531 5528 5525 5522 5518 5515 5512 5509 5506 5503 5501 5498 5495 5492 5489 5486 5482 5478 5474 5469 5464 5458 5452 5446 5439 5433 5427 5421 5416 5412 5407 5403 5400 5397 5394 5391 5389 5387 5386 5386 5385 5383 5383 5383 5382 5380 5379 5382 5383 5380 5380 5385 5386 5382 5380 5378 5378 5380 5383 5386 5389 5390 5392 5394 5394 5395 5391 5384 5388 5399 5399 5396 5400 5400 5399 5403 5406 5406 5408 5408 5411 5413 5414 5416 5417 5417 5418 5420
5527 5524 5521 5518 5514 5511 5508 5505 5502 5499 5497 5493 5490 5487 5483 5479 5474 5469 5465 5460 5454 5448 5442 5435 5428 5421 5415 5409 5404 5400 5395 5391 5388 5385 5382 5380 5378 5376 5375 5375 5375 5373 5372 5372 5372 5369 5370 5372 5371 5368 5369 5373 5375 5372 5367 5365 5366 5367 5370 5374 5377 5380 5383 5382 5381 5380 5377 5375 5379 5383 5383 5384 5387 5388 5389 5391 5391 5392 5392 5392 5396 5399 5400 5401 5402 5403 5405 5406
5524 5521 5518 5514 5511 5507 5504 5501 5498 5495 5492 5489 5485 5481 5477 5473 5468 5462 5457 5452 5446 5440 5433 5426 5419 5412 5406 5400 5394 5390 5386 5383 5379 5376 5373 5370 5368 5366 5365 5365 5365 5364 5363 5363 5362 5361 5360 5361 5361 5359 5358 5362 5365 5362 5357 5357 5356 5354 5359 5366 5369 5369 5367 5366 5367 5369 5367 5366 5368 5369 5367 5370 5375 5378 5377 5376 5377 5378 5377 5378 5382 5384 5386 5388 5389 5390 5391 5392
5521 5517 5514 5511 5507 5504 5500 5497 5494 5491 5487 5483 5480 5476 5472 5467 5463 5457 5450 5444 5438 5432 5424 5417 5410 5403 5397 5391 5386 5381 5377 5374 5371 5369 5365 5362 5360 5358 5356 5356 5355 5355 5354 5354 5353 5353 5352 5351 5352 5350 5348 5352 5354 5351 5350 5349 5344 5345 5353 5360 5359 5355 5353 5352 5355 5357 5356 5355 5356 5357 5358 5361 5364 5363 5362 5363 5364 5364 5364 5366 5368 5370 5372 5374 5376 5378 5379 5381